sat.trackr.live / text

‹ back to catalog

OPTISAT

NORAD 68418 · 2026-067C

PAYLOAD ACTIVE UNKNOWN

§ Identity

Operator
Country
GREC
Launch date
2026-03-30
Launch site
AFWTR
Launch vehicle
Mass (kg)
RCS (m²)

External: N2YO · Heavens-Above · Gunter

§ Orbital elements

Epoch: 2026-05-24T20:26:23.301312Z

Period
94.82 min
Inclination
97.4569°
Eccentricity
0.0003495
Mean motion
15.18741804 rev/d
Perigee alt
507.2 km
Apogee alt
512.0 km
Semi-major
6,887.8 km
B*
2.3059e-4
RAAN
103.7371°
Arg perigee
47.5674°
Mean anomaly
312.5855°
Rev number
840

§ Raw data

OPTISAT1 68418U 26067C   26144.85165858  .00004722  00000+0  23059-3 0  99972 68418  97.4569 103.7371 0003495  47.5674 312.5855 15.18741804  8405

JSON: /api/v1/satellites/68418 · /tle

For live sub-satellite position, see the globe view (requires WebGL).

§ Visibility from observer

Set your observer location to see the next 7 days of passes ≥ 10°. The values pass through the URL so the page stays shareable.

No JS? Fill the form by hand. The geolocation button needs JavaScript.

§ Radio — SatNOGS DB

ModeDescriptionDownlinkUplink
FM Telemetry 400.356 MHz

1 transmitter · refreshed weekly from db.satnogs.org